When you browse on this site, cookies collect data to enhance your experience and personalize the content and advertising you see.
Visit our Privacy Policy to learn more. By continuing to use the site, you agree to this use of cookies and data.
  • In Germany
  • List of Countries
  • For 7 days
  • Water Temperature
  • Weather Map
  • Weather Widgets
  • user-avatar
    Login

    Hourly Weather Laszkar Gah

    Today, 23 September, Monday

    Time Temperature Precipitation Wind Pressure Humidity
    00:00 +26°C° 0 mm 2 mps 690 mmHg 9%
    01:00 +25°C° 0 mm 1 mps 690 mmHg 9%
    02:00 +25°C° 0 mm 2 mps 690 mmHg 10%
    03:00 +25°C° 0 mm 2 mps 690 mmHg 10%
    04:00 +24°C° 0 mm 2 mps 690 mmHg 10%
    05:00 +26°C° 0 mm 2 mps 691 mmHg 9%
    06:00 +27°C° 0 mm 2 mps 692 mmHg 9%
    07:00 +29°C° 0 mm 2 mps 693 mmHg 8%
    08:00 +32°C° 0 mm 2 mps 694 mmHg 7%
    09:00 +35°C° 0 mm 2 mps 694 mmHg 6%
    10:00 +38°C° 0 mm 3 mps 695 mmHg 5%
    11:00 +39°C° 0 mm 3 mps 694 mmHg 4%
    12:00 +41°C° 0 mm 4 mps 694 mmHg 4%
    13:00 +43°C° 0 mm 4 mps 694 mmHg 4%
    14:00 +42°C° 0 mm 5 mps 693 mmHg 5%
    15:00 +42°C° 0 mm 5 mps 693 mmHg 6%
    16:00 +42°C° 0 mm 6 mps 692 mmHg 6%
    17:00 +39°C° 0 mm 5 mps 692 mmHg 8%
    18:00 +35°C° 0 mm 5 mps 692 mmHg 11%
    19:00 +33°C° 0 mm 4 mps 692 mmHg 13%
    20:00 +30°C° 0 mm 4 mps 692 mmHg 14%
    21:00 +28°C° 0 mm 3 mps 692 mmHg 16%
    22:00 +27°C° 0 mm 3 mps 692 mmHg 18%
    23:00 +26°C° 0 mm 2 mps 692 mmHg 19%

    Tomorrow, 24 September, Tuesday

    Time Temperature Precipitation Wind Pressure Humidity
    00:00 +25°C° 0 mm 2 mps 691 mmHg 21%
    01:00 +24°C° 0 mm 1 mps 691 mmHg 22%
    02:00 +23°C° 0 mm 2 mps 691 mmHg 23%
    03:00 +23°C° 0 mm 2 mps 691 mmHg 24%
    04:00 +23°C° 0 mm 2 mps 691 mmHg 24%
    05:00 +24°C° 0 mm 2 mps 692 mmHg 22%
    06:00 +26°C° 0 mm 1 mps 693 mmHg 20%
    07:00 +28°C° 0 mm 1 mps 693 mmHg 18%
    08:00 +30°C° 0 mm 2 mps 694 mmHg 16%
    09:00 +32°C° 0 mm 2 mps 694 mmHg 14%
    10:00 +36°C° 0 mm 2 mps 694 mmHg 12%
    11:00 +37°C° 0 mm 3 mps 694 mmHg 11%
    12:00 +39°C° 0 mm 3 mps 693 mmHg 9%
    13:00 +40°C° 0 mm 3 mps 693 mmHg 8%
    14:00 +40°C° 0 mm 3 mps 693 mmHg 7%
    15:00 +42°C° 0 mm 3 mps 692 mmHg 7%
    16:00 +42°C° 0 mm 3 mps 692 mmHg 7%
    17:00 +38°C° 0 mm 3 mps 692 mmHg 9%
    18:00 +34°C° 0 mm 2 mps 691 mmHg 11%
    19:00 +30°C° 0 mm 2 mps 691 mmHg 13%
    20:00 +29°C° 0 mm 2 mps 691 mmHg 13%
    21:00 +28°C° 0 mm 2 mps 691 mmHg 14%
    22:00 +28°C° 0 mm 2 mps 691 mmHg 14%
    23:00 +27°C° 0 mm 2 mps 691 mmHg 15%

    Day after tomorrow, 25 September, Wednesday

    Time Temperature Precipitation Wind Pressure Humidity
    00:00 +27°C° 0 mm 2 mps 690 mmHg 15%
    01:00 +26°C° 0 mm 2 mps 690 mmHg 15%
    02:00 +25°C° 0 mm 1 mps 690 mmHg 16%
    03:00 +25°C° 0 mm 1 mps 690 mmHg 16%
    04:00 +24°C° 0 mm 1 mps 690 mmHg 17%
    05:00 +26°C° 0 mm 1 mps 691 mmHg 15%
    06:00 +28°C° 0 mm 1 mps 692 mmHg 14%
    07:00 +30°C° 0 mm 1 mps 693 mmHg 13%
    08:00 +32°C° 0 mm 1 mps 694 mmHg 11%
    09:00 +34°C° 0 mm 1 mps 694 mmHg 10%
    10:00 +37°C° 0 mm 1 mps 695 mmHg 8%
    11:00 +39°C° 0 mm 2 mps 694 mmHg 8%
    12:00 +40°C° 0 mm 2 mps 694 mmHg 7%
    13:00 +42°C° 0 mm 2 mps 694 mmHg 6%
    14:00 +43°C° 0 mm 3 mps 694 mmHg 6%
    15:00 +43°C° 0 mm 3 mps 693 mmHg 6%
    16:00 +43°C° 0 mm 3 mps 693 mmHg 6%
    17:00 +39°C° 0 mm 3 mps 693 mmHg 7%
    18:00 +36°C° 0 mm 3 mps 692 mmHg 8%
    19:00 +33°C° 0 mm 3 mps 692 mmHg 10%
    20:00 +31°C° 0 mm 3 mps 692 mmHg 10%
    21:00 +30°C° 0 mm 3 mps 692 mmHg 11%
    22:00 +30°C° 0 mm 3 mps 693 mmHg 11%
    23:00 +29°C° 0 mm 3 mps 692 mmHg 11%

    26 September, Thursday

    Time Temperature Precipitation Wind Pressure Humidity
    00:00 +28°C° 0 mm 3 mps 692 mmHg 12%
    01:00 +27°C° 0 mm 2 mps 692 mmHg 13%
    02:00 +26°C° 0 mm 2 mps 692 mmHg 13%
    03:00 +26°C° 0 mm 2 mps 692 mmHg 14%
    04:00 +25°C° 0 mm 2 mps 692 mmHg 14%
    05:00 +26°C° 0 mm 1 mps 693 mmHg 13%
    06:00 +28°C° 0 mm 1 mps 693 mmHg 12%
    07:00 +30°C° 0 mm 1 mps 694 mmHg 11%
    08:00 +32°C° 0 mm 1 mps 695 mmHg 10%
    09:00 +34°C° 0 mm 1 mps 695 mmHg 9%
    10:00 +37°C° 0 mm 1 mps 696 mmHg 7%
    11:00 +39°C° 0 mm 1 mps 695 mmHg 7%
    12:00 +41°C° 0 mm 2 mps 695 mmHg 6%
    13:00 +42°C° 0 mm 2 mps 694 mmHg 5%
    14:00 +43°C° 0 mm 3 mps 694 mmHg 5%
    15:00 +43°C° 0 mm 3 mps 694 mmHg 5%
    16:00 +43°C° 0 mm 3 mps 693 mmHg 5%
    17:00 +40°C° 0 mm 3 mps 693 mmHg 6%
    18:00 +37°C° 0 mm 4 mps 693 mmHg 7%
    19:00 +34°C° 0 mm 4 mps 692 mmHg 8%
    20:00 +33°C° 0 mm 3 mps 692 mmHg 9%
    21:00 +30°C° 0 mm 3 mps 692 mmHg 10%
    22:00 +29°C° 0 mm 3 mps 692 mmHg 11%
    23:00 +28°C° 0 mm 2 mps 692 mmHg 12%

    27 September, Friday

    Time Temperature Precipitation Wind Pressure Humidity
    00:00 +27°C° 0 mm 2 mps 691 mmHg 13%
    01:00 +26°C° 0 mm 1 mps 691 mmHg 15%
    02:00 +25°C° 0 mm 1 mps 691 mmHg 15%
    03:00 +24°C° 0 mm 1 mps 691 mmHg 16%
    04:00 +24°C° 0 mm 1 mps 691 mmHg 16%
    05:00 +26°C° 0 mm 1 mps 692 mmHg 15%
    06:00 +28°C° 0 mm 1 mps 693 mmHg 13%
    07:00 +30°C° 0 mm 2 mps 694 mmHg 12%
    08:00 +32°C° 0 mm 2 mps 694 mmHg 10%
    09:00 +35°C° 0 mm 1 mps 694 mmHg 9%
    10:00 +37°C° 0 mm 1 mps 695 mmHg 7%
    11:00 +39°C° 0 mm 1 mps 694 mmHg 7%
    12:00 +41°C° 0 mm 1 mps 693 mmHg 6%
    13:00 +42°C° 0 mm 1 mps 693 mmHg 5%
    14:00 +42°C° 0 mm 1 mps 693 mmHg 5%
    15:00 +43°C° 0 mm 2 mps 692 mmHg 4%
    16:00 +43°C° 0 mm 2 mps 692 mmHg 4%
    17:00 +40°C° 0 mm 2 mps 691 mmHg 5%
    18:00 +37°C° 0 mm 3 mps 691 mmHg 6%
    19:00 +33°C° 0 mm 3 mps 690 mmHg 7%
    20:00 +31°C° 0 mm 3 mps 691 mmHg 8%
    21:00 +31°C° 0 mm 3 mps 691 mmHg 8%
    22:00 +30°C° 0 mm 2 mps 691 mmHg 9%
    23:00 +29°C° 0 mm 2 mps 690 mmHg 9%

    28 September, Saturday

    Time Temperature Precipitation Wind Pressure Humidity
    00:00 +28°C° 0 mm 3 mps 690 mmHg 10%
    01:00 +27°C° 0 mm 3 mps 690 mmHg 10%
    02:00 +27°C° 0 mm 3 mps 690 mmHg 11%
    03:00 +26°C° 0 mm 2 mps 689 mmHg 12%
    04:00 +25°C° 0 mm 2 mps 689 mmHg 12%
    05:00 +27°C° 0 mm 2 mps 690 mmHg 12%
    06:00 +28°C° 0 mm 2 mps 690 mmHg 11%
    07:00 +29°C° 0 mm 2 mps 691 mmHg 10%
    08:00 +33°C° 0 mm 3 mps 691 mmHg 9%
    09:00 +36°C° 0 mm 3 mps 692 mmHg 7%
    10:00 +38°C° 0 mm 3 mps 692 mmHg 6%
    11:00 +40°C° 0 mm 3 mps 691 mmHg 5%
    12:00 +41°C° 0 mm 2 mps 691 mmHg 5%
    13:00 +42°C° 0 mm 2 mps 690 mmHg 4%
    14:00 +43°C° 0 mm 3 mps 690 mmHg 4%
    15:00 +43°C° 0 mm 3 mps 690 mmHg 4%
    16:00 +43°C° 0 mm 4 mps 689 mmHg 4%
    17:00 +40°C° 0 mm 4 mps 689 mmHg 5%
    18:00 +35°C° 0 mm 3 mps 689 mmHg 6%
    19:00 +31°C° 0 mm 2 mps 688 mmHg 7%
    20:00 +30°C° 0 mm 2 mps 688 mmHg 8%
    21:00 +29°C° 0 mm 2 mps 688 mmHg 8%
    22:00 +28°C° 0 mm 2 mps 689 mmHg 8%
    23:00 +27°C° 0 mm 2 mps 688 mmHg 8%
    Show more